User: anonymous   Login
Location: Brede
(50.9167°N, 0.6000°E)
Time: 16:03:41
(UTC+00:00)
Language:

Meteor 2-9 Rocket - Orbit

View from above orbital plane
View from above orbital plane
View from above satellite
View from above satellite

Ground track
Ground track

The orbit data is extracted from the following two-line orbital elements,

1 13719U 82116B   20296.21601438  .00000065  00000-0  25971-4 0  9992
2 13719  81.2547 242.2030 0072536 103.7052   7.9149 14.14658534953282
Epoch (UTC): 22 October 2020 05:11:03
Eccentricity: 0.0072536
inclination: 81.2547°
perigee height: 791 km
apogee height: 896 km
right ascension of ascending node: 242.2030°
argument of perigee: 103.7052°
revolutions per day: 14.14658534
mean anomaly at epoch: 7.9149°
orbit number at epoch: 95328

The dashed part of the orbit path shows where the satellite is in the earth's shadow,  

DLR